User: anonymous   Login
Location: Unspecified
(0.0000°N, 0.0000°E)
Time: 21:18:25
(UTC+00:00)
Language:

Astrid - Orbit

View from above orbital plane
View from above orbital plane
View from above satellite
View from above satellite

Ground track
Ground track

The orbit data is extracted from the following two-line orbital elements,

1 23464U 95002B   17141.90054731 +.00000060 +00000-0 +49335-4 0  9992
2 23464 082.9256 308.7553 0040707 354.6592 005.4122 13.72521593117759
Epoch (UTC): 21 May 2017 21:36:47
Eccentricity: 0.0040707
inclination: 82.9256°
perigee height: 960 km
apogee height: 1020 km
right ascension of ascending node: 308.7553°
argument of perigee: 354.6592°
revolutions per day: 13.72521593
mean anomaly at epoch: 5.4122°
orbit number at epoch: 11775

The dashed part of the orbit path shows where the satellite is in the earth's shadow,  

DLR